CW4185 Weather Reports


time (UTC)temp
C
wind
direction
speed
KPH
gust
KPH
rain 1hr
cm
rain 24hr
cm
rain mn
cm
humidity
%
barometer
mb
20260503060146 19 353 8.0 14.5 0.00 0.00 0.00 47 1019.0
20260503054648 19 10 16.1 17.7 0.00 0.00 0.00 47 1019.0
20260503054146 19 31 11.3 12.9 0.00 0.00 0.00 48 1019.0
20260503053646 19 42 8.0 11.3 0.00 0.00 0.00 47 1019.0
20260503053147 19 34 6.4 9.7 0.00 0.00 0.00 47 1019.0
20260503052647 19 13 9.7 17.7 0.00 0.00 0.00 46 1019.0
20260503052147 19 6 6.4 12.9 0.00 0.00 0.00 47 1018.6
20260503051647 19 10 4.8 16.1 0.00 0.00 0.00 47 1019.0
20260503051146 20 12 6.4 12.9 0.00 0.00 0.00 46 1018.6
20260503050647 20 32 16.1 16.1 0.00 0.00 0.00 46 1019.0
20260503050154 20 0 4.8 19.3 0.00 0.00 0.00 47 1019.0
20260503045647 20 56 8.0 14.5 0.00 0.00 1.73 47 1019.0
20260503045146 20 338 9.7 14.5 0.00 0.00 1.73 47 1019.0
20260503044647 20 37 11.3 14.5 0.00 0.00 1.73 47 1019.0
20260503044146 20 26 8.0 12.9 0.00 0.00 1.73 47 1019.0
20260503043646 20 349 4.8 16.1 0.00 0.00 1.73 47 1019.0
20260503043147 20 331 4.8 14.5 0.00 0.00 1.73 45 1019.0
20260503042646 20 25 8.0 16.1 0.00 0.00 1.73 45 1019.0
20260503042147 20 41 8.0 17.7 0.00 0.00 1.73 45 1018.6
20260503041646 20 3 4.8 17.7 0.00 0.00 1.73 45 1018.6
20260503041146 20 30 8.0 9.7 0.00 0.00 1.73 45 1018.6
20260503040646 20 1 8.0 14.5 0.00 0.00 1.73 43 1018.6
20260503040146 20 26 14.5 20.9 0.00 0.00 1.73 43 1018.6
20260503035647 20 6 8.0 14.5 0.00 0.00 1.73 45 1018.3
20260503035146 20 2 9.7 17.7 0.00 0.00 1.73 45 1018.6
20260503034646 20 26 3.2 11.3 0.00 0.00 1.73 45 1018.3
20260503034148 20 27 8.0 14.5 0.00 0.00 1.73 44 1018.6
20260503033647 20 285 6.4 12.9 0.00 0.00 1.73 44 1018.6
20260503033146 20 6 12.9 19.3 0.00 0.00 1.73 44 1018.3
20260503032646 20 31 11.3 14.5 0.00 0.00 1.73 44 1018.3
20260503032146 20 10 17.7 20.9 0.00 0.00 1.73 43 1017.9
20260503031647 20 12 6.4 11.3 0.00 0.00 1.73 44 1018.3
20260503031146 20 6 11.3 17.7 0.00 0.00 1.73 43 1018.3
20260503030646 20 3 14.5 20.9 0.00 0.00 1.73 43 1018.3
20260503030147 20 352 6.4 19.3 0.00 0.00 1.73 43 1018.3
20260503025646 20 14 14.5 14.5 0.00 0.00 1.73 42 1017.9
20260503025147 20 11 8.0 14.5 0.00 0.00 1.73 41 1017.9
20260503024646 20 41 4.8 14.5 0.00 0.00 1.73 42 1017.9
20260503024146 20 303 4.8 17.7 0.00 0.00 1.73 42 1017.9
20260503023646 20 17 6.4 17.7 0.00 0.00 1.73 41 1017.9
20260503023146 20 4 9.7 16.1 0.00 0.00 1.73 42 1017.9
20260503022647 20 336 4.8 14.5 0.00 0.00 1.73 42 1017.6
20260503022147 20 329 9.7 16.1 0.00 0.00 1.73 41 1017.6
20260503021646 20 27 12.9 17.7 0.00 0.00 1.73 41 1017.6
20260503021148 20 11 14.5 20.9 0.00 0.00 1.73 41 1017.9
20260503020647 20 14 9.7 16.1 0.00 0.00 1.73 41 1017.6
20260503020146 20 25 11.3 17.7 0.00 0.00 1.73 42 1017.6
20260503015647 20 356 11.3 16.1 0.00 0.00 1.73 42 1017.3
20260503015147 20 1 9.7 17.7 0.00 0.00 1.73 41 1017.3
20260503014647 20 338 11.3 16.1 0.00 0.00 1.73 41 1017.3
20260503014146 21 47 11.3 14.5 0.00 0.00 1.73 40 1017.3
20260503013646 20 317 6.4 11.3 0.00 0.00 1.73 42 1017.3
20260503013147 21 337 8.0 14.5 0.00 0.00 1.73 42 1017.3
20260503012646 21 341 4.8 12.9 0.00 0.00 1.73 42 1017.3
20260503012147 21 1 6.4 11.3 0.00 0.00 1.73 42 1017.3
20260503011646 21 317 4.8 14.5 0.00 0.00 1.73 42 1017.3
20260503011146 21 0 1.6 11.3 0.00 0.00 1.73 42 1016.9
20260503010647 21 353 9.7 16.1 0.00 0.00 1.73 41 1016.9
20260503010146 21 326 11.3 11.3 0.00 0.00 1.73 40 1016.9
20260503005646 21 5 8.0 17.7 0.00 0.00 1.73 40 1016.6
20260503005146 21 11 9.7 11.3 0.00 0.00 1.73 40 1016.6
20260503004646 21 4 6.4 17.7 0.00 0.00 1.73 40 1016.6
20260503004146 21 307 6.4 17.7 0.00 0.00 1.73 40 1016.6
20260503003646 21 330 8.0 20.9 0.00 0.00 1.73 41 1016.3
20260503003146 21 356 3.2 11.3 0.00 0.00 1.73 41 1016.3
20260503002647 21 349 6.4 14.5 0.00 0.00 1.73 40 1015.9
20260503002147 21 25 6.4 11.3 0.00 0.00 1.73 40 1015.9
20260503001646 21 2 4.8 20.9 0.00 0.00 1.73 39 1015.9
20260503001147 21 29 11.3 16.1 0.00 0.00 1.73 39 1015.9
20260503000648 21 355 8.0 17.7 0.00 0.00 1.73 38 1015.9
20260503000146 22 336 8.0 24.1 0.00 0.00 1.73 38 1015.9
20260502235646 22 353 11.3 22.5 0.00 0.00 1.73 38 1015.9
20260502235146 22 301 8.0 17.7 0.00 0.00 1.73 38 1015.6
20260502234647 22 359 11.3 24.1 0.00 0.00 1.73 37 1015.6
20260502234146 22 8 6.4 19.3 0.00 0.00 1.73 37 1015.2
20260502233647 22 337 6.4 17.7 0.00 0.00 1.73 37 1015.2
20260502233146 22 349 12.9 17.7 0.00 0.00 1.73 38 1015.2
20260502232647 22 1 6.4 19.3 0.00 0.00 1.73 37 1015.2
20260502232146 22 6 6.4 19.3 0.00 0.00 1.73 37 1015.6
20260502231646 22 332 12.9 19.3 0.00 0.00 1.73 36 1015.2
20260502231147 22 337 9.7 16.1 0.00 0.00 1.73 36 1015.2
20260502230646 22 321 6.4 12.9 0.00 0.00 1.73 37 1015.2
20260502230146 22 8 17.7 20.9 0.00 0.00 1.73 37 1014.9
20260502225648 22 331 11.3 20.9 0.00 0.00 1.73 37 1015.2
20260502225146 22 22 17.7 24.1 0.00 0.00 1.73 37 1014.9
20260502224647 22 350 8.0 24.1 0.00 0.00 1.73 37 1015.2
20260502224146 22 19 9.7 17.7 0.00 0.00 1.73 38 1014.9
20260502223646 22 312 8.0 12.9 0.00 0.00 1.73 38 1014.9
20260502223146 22 345 6.4 17.7 0.00 0.00 1.73 37 1014.9
20260502222646 22 315 6.4 19.3 0.00 0.00 1.73 38 1014.9
20260502222146 22 338 8.0 14.5 0.00 0.00 1.73 38 1014.6
20260502221646 22 5 11.3 16.1 0.00 0.00 1.73 37 1014.9
20260502221146 22 5 11.3 16.1 0.00 0.00 1.73 37 1014.9
20260502220646 22 342 9.7 20.9 0.00 0.00 1.73 38 1014.9
20260502220146 22 22 11.3 24.1 0.00 0.00 1.73 37 1014.9
20260502215646 22 22 14.5 24.1 0.00 0.00 1.73 37 1014.9
20260502215146 22 13 11.3 22.5 0.00 0.00 1.73 38 1014.9
20260502214646 22 334 19.3 24.1 0.00 0.00 1.73 38 1014.9
20260502214146 22 305 9.7 25.7 0.00 0.00 1.73 38 1014.9
20260502213646 22 337 9.7 17.7 0.00 0.00 1.73 39 1014.9
20260502213146 22 341 9.7 24.1 0.00 0.00 1.73 37 1014.9
20260502212646 22 26 17.7 19.3 0.00 0.00 1.73 38 1014.9
20260502212146 22 334 12.9 25.7 0.00 0.00 1.73 40 1014.9
20260502211647 22 8 12.9 22.5 0.00 0.00 1.73 41 1014.6
20260502211146 22 354 6.4 25.7 0.00 0.00 1.73 39 1014.6
20260502210646 22 2 14.5 22.5 0.00 0.00 1.73 40 1014.9
20260502210147 22 330 11.3 24.1 0.00 0.00 1.73 40 1014.9
20260502205647 22 339 12.9 29.0 0.00 0.00 1.73 40 1014.9
20260502205147 22 320 20.9 27.4 0.00 0.00 1.73 42 1014.9
20260502204646 22 46 19.3 22.5 0.00 0.00 1.73 42 1014.9
20260502204147 22 353 19.3 32.2 0.00 0.00 1.73 42 1014.9
20260502203647 22 15 20.9 25.7 0.00 0.00 1.73 44 1014.9
20260502203146 22 35 12.9 22.5 0.00 0.00 1.73 43 1014.9
20260502202646 22 340 11.3 25.7 0.00 0.00 1.73 45 1014.6
20260502202147 22 353 11.3 14.5 0.00 0.00 1.73 47 1014.9
20260502201646 22 339 20.9 22.5 0.00 0.00 1.73 49 1014.9
20260502201146 22 347 11.3 27.4 0.00 0.00 1.73 49 1014.9
20260502200646 22 16 8.0 30.6 0.00 0.00 1.73 49 1015.2
20260502200147 22 352 12.9 24.1 0.00 0.00 1.73 51 1015.2
20260502195646 22 331 14.5 27.4 0.00 0.00 1.73 53 1015.2
20260502195146 22 339 8.0 22.5 0.00 0.00 1.73 53 1015.2
20260502194646 22 342 8.0 24.1 0.00 0.00 1.73 53 1015.2
20260502194149 21 331 11.3 22.5 0.00 0.00 1.73 53 1015.2
20260502193647 21 358 8.0 37.0 0.00 0.00 1.73 55 1015.2
20260502193146 22 1 16.1 25.7 0.00 0.00 1.73 53 1015.6
20260502192646 22 11 11.3 29.0 0.00 0.00 1.73 55 1015.6
20260502192147 21 50 3.2 19.3 0.00 0.00 1.73 57 1015.6
20260502191647 21 11 11.3 27.4 0.00 0.00 1.73 56 1015.2
20260502191146 21 352 12.9 29.0 0.00 0.00 1.73 55 1015.2
20260502190647 22 310 22.5 25.7 0.00 0.00 1.73 56 1015.2
20260502190146 21 12 8.0 14.5 0.00 0.00 1.73 58 1015.6
20260502185646 21 344 11.3 22.5 0.00 0.00 1.73 59 1015.6
20260502185146 21 10 14.5 24.1 0.00 0.00 1.73 56 1015.6
20260502184646 21 332 11.3 16.1 0.00 0.00 1.73 58 1015.2
20260502184146 21 309 12.9 19.3 0.00 0.00 1.73 59 1015.2
20260502183646 21 42 11.3 33.8 0.00 0.00 1.73 58 1015.6
20260502183146 21 28 6.4 17.7 0.00 0.00 1.73 59 1015.6
20260502182647 21 334 8.0 24.1 0.00 0.00 1.73 60 1015.6
20260502182146 21 334 9.7 20.9 0.00 0.00 1.73 60 1015.6
20260502181647 21 326 14.5 24.1 0.00 0.00 1.73 58 1015.6
20260502181147 21 21 16.1 24.1 0.00 0.00 1.73 59 1015.6
20260502180646 21 1 9.7 24.1 0.00 0.00 1.73 59 1015.6
20260502180146 20 12 12.9 30.6 0.00 0.00 1.73 59 1015.6
20260502170146 20 38 8.0 19.3 0.00 0.00 1.73 66 1016.3
20260502164157 18 350 16.1 22.5 0.00 0.00 1.73 71 1016.3
20260502163646 18 22 17.7 27.4 0.00 0.00 1.73 70 1016.3
20260502163147 18 358 8.0 20.9 0.00 0.00 1.73 70 1016.3
20260502162646 18 326 8.0 19.3 0.00 0.00 1.73 70 1016.3
20260502162146 18 13 9.7 20.9 0.00 0.00 1.73 71 1016.3
20260502161647 18 357 14.5 25.7 0.00 0.00 1.73 72 1016.3
20260502161147 18 34 14.5 22.5 0.00 0.00 1.73 73 1016.6
20260502160647 18 357 16.1 22.5 0.00 0.00 1.73 74 1015.9
20260502160146 17 20 17.7 24.1 0.00 0.00 1.73 75 1016.3
20260502152146 17 354 3.2 12.9 0.00 0.00 1.73 78 1016.3
20260502151646 17 36 8.0 14.5 0.00 0.00 1.73 78 1016.3
20260502151146 17 325 11.3 22.5 0.00 0.00 1.73 78 1016.3
20260502150647 17 331 9.7 17.7 0.00 0.00 1.73 78 1016.3
20260502150148 16 9 9.7 20.9 0.00 0.00 1.73 78 1016.3
20260502130158 15 359 9.7 27.4 0.00 0.00 1.73 82 1014.9
20260502123647 14 23 11.3 25.7 0.00 0.00 1.73 86 1014.2
20260502123148 14 25 9.7 16.1 0.00 0.00 1.73 87 1014.2
20260502122646 14 24 9.7 19.3 0.00 0.00 1.73 87 1014.2
20260502122146 14 35 14.5 33.8 0.00 0.00 1.73 87 1014.2
20260502121646 14 24 12.9 29.0 0.00 0.00 1.73 87 1014.2
20260502121147 14 39 19.3 29.0 0.00 0.00 1.73 89 1014.2
20260502120646 14 5 16.1 22.5 0.00 0.00 1.73 90 1014.2
20260502120146 13 12 14.5 27.4 0.00 0.00 1.73 90 1014.2
20260502115647 13 25 19.3 32.2 0.00 0.00 1.73 90 1013.9
20260502115146 14 346 6.4 30.6 0.00 0.00 1.73 91 1013.5
20260502114647 14 37 14.5 24.1 0.00 0.00 1.73 90 1013.5
20260502114146 14 24 19.3 33.8 0.00 0.00 1.73 90 1013.5
20260502113647 14 34 17.7 30.6 0.00 0.00 1.73 90 1013.5
20260502113146 14 10 8.0 25.7 0.00 0.00 1.73 91 1013.5
20260502112647 13 24 8.0 24.1 0.00 0.00 1.73 92 1013.2
20260502112147 13 24 9.7 32.2 0.00 0.00 1.73 93 1013.2
20260502111647 13 46 9.7 22.5 0.00 0.00 1.73 94 1013.2
20260502111147 13 351 9.7 17.7 0.00 0.00 1.73 95 1013.2
20260502110646 13 43 12.9 20.9 0.05 0.00 1.73 95 1012.9
20260502110146 13 23 17.7 25.7 0.05 0.00 1.73 95 1013.2
20260502105647 13 35 17.7 29.0 0.00 0.00 1.70 96 1012.9
20260502105148 13 9 12.9 27.4 0.00 0.00 1.70 96 1012.9
20260502104646 13 38 9.7 19.3 0.00 0.00 1.70 95 1012.9
20260502104147 13 35 20.9 30.6 0.00 0.00 1.70 95 1012.9
20260502103646 13 33 16.1 27.4 0.00 0.00 1.70 95 1012.9
20260502103152 13 20 20.9 24.1 0.05 0.00 1.70 95 1012.9
20260502102650 13 15 9.7 25.7 0.05 0.00 1.70 96 1012.5
20260502102146 13 48 4.8 27.4 0.00 0.00 1.70 95 1012.5
20260502101651 13 2 8.0 29.0 0.00 0.00 1.70 94 1012.5
20260502101146 14 18 6.4 16.1 0.00 0.00 1.70 93 1012.5
20260502100647 14 30 17.7 27.4 0.00 0.00 1.70 92 1012.5
20260502100147 14 358 9.7 20.9 0.00 0.00 1.70 93 1012.5
20260502091146 13 0 14.5 20.9 0.00 0.00 1.70 95 1012.2
20260502090648 13 74 4.8 20.9 0.00 0.00 1.70 95 1012.5
20260502090149 13 76 4.8 11.3 0.00 0.00 1.70 96 1012.5
20260502071146 14 4 6.4 24.1 1.85 0.00 1.55 98 1011.2
20260502070646 14 315 12.9 14.5 0.43 0.00 1.27 98 1012.9
20260502070149 14 355 4.8 17.7 0.61 0.00 1.22 98 1012.2